Regional Weather Roundup
Issued by NWS Northern Indiana

Home | Current Version | Previous Version | Text Only | Print | Product List | Glossary Off
Versions: 1 2 3 4 5 6 7 8 9 10 11 12 13 14 15 16 17 18 19 20 21 22 23 24 25 26 27 28 29 30 31 32 33 34 35 36 37 38 39 40 41 42 43 44 45 46 47 48 49 50

000
ASUS43 KIWX 231000
RWRIWX

KIWX WEATHER ROUNDUP
NATIONAL WEATHER SERVICE NORTHERN INDIANA
600 AM EDT WED AUG 23 2017

NOTE: "FAIR" INDICATES FEW OR NO CLOUDS BELOW 12,000 FEET WITH NO
SIGNIFICANT WEATHER AND/OR OBSTRUCTIONS TO VISIBILITY.

* THESE STATIONS ARE NOT UNDER NWS QUALITY CONTROL. THEY ALSO MAY NOT
  REPORT WEATHER SUCH AS PRECIPITATION OR FOG.

INZ001>027-231100-
NORTHERN INDIANA

CITY           SKY/WX    TMP DP  RH WIND       PRES   REMARKS
MICHIGAN CITY* CLEAR     64  52  63 NW3       30.00S
SOUTH BEND     CLEAR     57  55  93 W6        30.00S
GOSHEN         CLEAR     55  52  89 CALM      29.98F
MONTICELLO*    PTCLDY    56  55  96 W3        30.01S
FORT WAYNE     CLEAR     57  54  89 W7        29.99S
PERU/GRISSOM   CLEAR     59  59 100 W5        30.00S

$$
INZ028>050-231100-
CENTRAL INDIANA

CITY           SKY/WX    TMP DP  RH WIND       PRES   REMARKS
LAFAYETTE      PTCLDY    56  56 100 CALM      30.02S
KOKOMO*        PTCLDY    59  57  93 W5        30.02R
MUNCIE*        PTCLDY    56  53  90 CALM      30.00S
INDIANAPOLIS   PTCLDY    59  57  93 NW7       30.01R

$$
MIZ043>046-050>051-056>058-064>065-071>073-077>080-231100-
SOUTHWEST LOWER MICHIGAN

CITY           SKY/WX    TMP DP  RH WIND       PRES   REMARKS
BATTLE CREEK   CLEAR     57  53  86 W7        29.96S
BENTON HARBOR  CLEAR     67  52  58 VRB7      29.97F
COLDWATER*     CLEAR     55  55  98 SW6       29.97S
HILLSDALE*     CLEAR     55  52  88 W6        29.96S
HOLLAND        PTCLDY    67  51  56 NW9G18    29.96S
GRAND RAPIDS   CLEAR     58  54  86 W8        29.94S
KALAMAZOO      CLEAR     59  52  77 W6        29.97S
STURGIS*       CLEAR     56  54  91 CALM      29.97S
THREE RIVERS*  FAIR      59  54  83 W3        29.97F

$$
OHZ001>008-015>018-024>025-231100-
NORTHWEST OHIO

CITY           SKY/WX    TMP DP  RH WIND       PRES   REMARKS
DEFIANCE       CLEAR     55  53  93 CALM      29.97S
FINDLAY        CLEAR     56  52  86 SW5       29.96S
TOLEDO EXPRESS CLEAR     55  54  96 W7        29.95S
TOLEDO METCALF CLEAR     55  53  93 SW3       29.95S
LIMA           CLEAR     54  54 100 SW3       29.98S

$$
AND FOR LAKE MICHIGAN COASTAL AND OPEN LAKE BUOY OBSERVATIONS

STATION/POSITION TEMP    WIND        PRES    VSBY  WAVE
                 AIR SEA DIR/SP/G                  HT/PER
                 (F)     (DEG/KT/KT) (MB)    (MI)  (FT/S)
CALUMET HARBOR    63     270/  2/  4 1015.6F
MICHIGAN CITY     69     310/ 17/ 19   N/A
BURNS HARBOR      69     320/ 13/ 16 1016.3S
SAINT JOSEPH      71     330/ 13/ 17 1016.3
SOUTH LAKE BUOY   68 71  320/ 14/ 16 1014.8          4/ 4
4 MI NW BRIDGMAN  70 73  350/ 14/ 17 1015.2F         5/ 5
MICHIGAN CITY     70 73  320/ 14/ 17   N/A           5/ 5

$$
&&




USA.gov is the U.S. government's official web portal to all federal, state and local government web resources and services.